www.pogodaiklimat.ru

Погода и климат >> Архив погоды >> Индия >> Чхаттисгарх >> Пендра-роуд


ПОГОДА в Пендра-роуде

  • Прогноз погоды в Пендра-роуде
  • Монитор погоды в Пендра-роуде

АРХИВ ПОГОДЫ в Пендра-роуде

Время (UTC), дата Ветер
(напр.,м/с)
 
Видим.   Явления Облачность Т
(С)
Тd
(С)
f
(%)
Тe
(С)
Тes
(С)
Комфортность P
(гПа)
Po
(гПа)
Тmin
(С)
Tmax
(С)
R
(мм)
R24
(мм)
S
(см)
09 15.02 штиль 0 4000 м 6/5 600 м
[Cu Sc Ci fib]
+20.8 +12.7 60 +23 +29 комфорт 1015.0 944.9
12 15.02 штиль 0 4000 м гроза, ливневой дождь 9/6 600 м
[Cb cap As op]
+20.8 +13.1 61 +23 +23 комфорт 1013.6 943.5 +23.9 0.2
15 15.02 ЮВ 1 4000 м гроза, ливневой дождь 10/6 600 м
[Cb cap As op]
+16.6 +14.6 88 +17 +17 1018.3 947.0 4
18 15.02 ЮЗ 2 4000 м {гроза, дождь} 10/6 600 м
[Sc As op]
+16.0 +14.3 90 +16 +16 1016.2 944.9 7
21 15.02 штиль 0 4000 м 5/3 600 м
[Sc Ac trans]
+15.8 +13.4 86 +16 +16 1015.1 943.8 7
00 16.02 ЮВ 1 4000 м 5/3 600 м
[Sc Ac trans]
+15.4 +13.7 90 +16 +16 1015.4 944.1 7
03 16.02 ЮЗ 1 4000 м 3/0
[Ac trans]
+16.6 +14.3 86 +17 +22 1018.1 946.9 +13.6 7
06 16.02 ЮВ 1 4000 м 8/4 600 м
[Sc Ac trans]
+19.4 +15.5 78 +22 +28 комфорт 1017.2 946.8
09 16.02 ЮВ 1 4000 м 3/3 900 м
[Cu med, cong]
+22.6 +15.9 66 +27 +34 душно 1013.3 943.8
12 16.02 штиль 0 4000 м 8/4 600 м
[Sc Ac trans]
+22.0 +16.6 71 +26 +26 душно 1012.4 942.7 +24.1
15 16.02 штиль 0 4000 м 5/4 600 м
[Sc Ac trans]
+19.4 +17.2 87 +21 +21 комфорт 1014.8 944.5
18 16.02 штиль 0 4000 м 3/0
[Ac trans]
+16.8 +11.1 69 +17 +17 1015.7 944.6
21 16.02 штиль 0 4000 м 3/0
[Ci fib]
+15.8 +9.6 67 +16 +16 1015.4 944.1
00 17.02 штиль 0 4000 м 1/0
[Ci fib]
+12.8 +9.0 78 +12 +12 1015.8 943.7
03 17.02 СВ 1 4000 м ясно +14.6 +9.0 69 +15 +21 1017.2 945.5 +10.6
06 17.02 СВ 1 4000 м ясно +21.2 +13.6 62 +24 +41 комфорт 1014.9 945.0
09 17.02 С 1 4000 м ясно +24.4 +9.7 39 +25 +36 комфорт 1010.8 941.9
12 17.02 С 1 4000 м ясно +22.8 +8.9 41 +24 +24 комфорт 1010.5 941.1 +25.4
15 17.02 штиль 0 4000 м ясно +16.6 +6.6 52 +17 +17 1013.2 942.3
18 17.02 штиль 0 4000 м ясно +14.6 +6.8 59 +14 +14 1014.2 942.8
21 17.02 штиль 0 4000 м ясно +12.8 +7.3 69 +12 +12 1012.6 940.8
00 18.02 штиль 0 4000 м ясно +12.6 +6.2 65 +12 +12 1012.5 940.7
03 18.02 штиль 0 4000 м 1/0
[Ci fib]
+14.8 +7.1 60 +15 +21 1014.3 942.9 +9.9
06 18.02 СВ 1 4000 м ясно +23.4 +4.6 29 +23 +41 комфорт 1013.0 943.7
09 18.02 СВ 1 4000 м 3/0
[Ac trans]
+26.6 +3.6 23 +25 +34 комфорт 1009.5 941.0
12 18.02 С 1 4000 м 1/0
[Ci fib]
+24.4 +7.8 35 +25 +25 комфорт 1009.2 940.4 +27.5
15 18.02 штиль 0 4000 м 3/0
[Ac trans]
+18.8 +9.8 56 +19 +19 1012.3 941.9
18 18.02 штиль 0 4000 м 1/0
[Ci fib]
+17.8 +9.5 58 +18 +18 1012.5 941.8
21 18.02 штиль 0 4000 м 1/0
[Ci fib]
+17.0 +8.9 59 +17 +17 1011.7 940.9
00 19.02 штиль 0 4000 м 1/0
[Ac trans]
+16.0 +9.0 63 +16 +16 1012.9 941.8
03 19.02 ЮВ 1 4000 м 1/1 900 м
[Cu hum]
+19.4 +9.3 52 +22 +27 комфорт 1014.5 944.2 +14.4
06 19.02 штиль 0 4000 м ясно +28.4 +8.5 29 +28 +49 жарко 1012.5 944.4
09 19.02 ЮВ 2 4000 м ясно +30.0 +8.5 26 +29 +39 жарко 1009.8 942.1
12 19.02 ЮЗ 1 4000 м 1/0
[Ac trans]
+28.0 +10.3 33 +28 +28 жарко 1010.7 942.5 +30.9
15 19.02 штиль 0 4000 м ясно +22.6 +11.7 50 +25 +25 комфорт 1014.3 944.8
18 19.02 штиль 0 4000 м ясно +19.4 +12.6 65 +21 +21 комфорт 1016.0 945.6
21 19.02 штиль 0 4000 м ясно +18.2 +10.8 62 +18 +18 1015.1 944.6
00 20.02 З 1 4000 м ясно +16.0 +10.2 68 +17 +17 1016.7 945.3
03 20.02 штиль 0 4000 м ясно +18.0 +11.7 67 +18 +25 1018.6 947.5 +13.8
06 20.02 штиль 0 4000 м ясно +27.0 +10.7 36 +28 +48 жарко 1016.7 947.8
09 20.02 штиль 0 4000 м ясно +31.0 +10.1 27 +31 +43 жарко 1013.1 945.3
12 20.02 штиль 0 4000 м ясно +29.0 +11.3 33 +30 +30 жарко 1013.7 945.4 +31.5
15 20.02 штиль 0 4000 м ясно +22.2 +12.0 52 +25 +25 комфорт 1017.9 948.1
18 20.02 штиль 0 4000 м ясно +20.0 +11.3 57 +21 +21 комфорт 1019.4 948.8
21 20.02 штиль 0 4000 м ясно +18.4 +11.0 62 +19 +19 1018.5 947.7
00 21.02 штиль 0 4000 м ясно +17.2 +10.8 66 +17 +17 1019.0 947.9
03 21.02 штиль 0 4000 м ясно +20.2 +12.0 59 +22 +29 комфорт 1019.6 949.1 +15.9 +15.9
06 21.02 Ю 2 4000 м ясно +29.6 +11.3 32 +30 +47 жарко 1017.2 949.0
09 21.02 ЮЗ 2 4000 м ясно +31.8 +11.4 29 +32 +42 жарко 1013.4 945.8
12 21.02 ЮЗ 1 4000 м ясно +29.0 +12.7 37 +30 +30 жарко 1012.9 944.8 +32.0
15 21.02 Ю 1 4000 м ясно +24.8 +12.9 48 +27 +27 жарко 1015.6 946.4
18 21.02 Ю 1 4000 м 4/0
[Ci fib]
+23.4 +13.9 55 +27 +27 душно 1015.8 946.3
21 21.02 штиль 0 4000 м ясно +22.0 +14.5 62 +25 +25 комфорт 1014.5 944.7
00 22.02 Ю 1 4000 м ясно +21.0 +15.2 69 +25 +25 комфорт 1014.0 943.9
03 22.02 штиль 0 4000 м ясно +22.2 +16.2 69 +26 +33 душно 1015.2 945.5 +19.1
06 22.02 З 2 4000 м ясно +31.6 +15.0 37 +34 +49 душно 1013.2 945.6

 

Местоположение метеостанции Пендра-роуд (Чхаттисгарх, Индия): широта 22.77 долгота 81.90 высота над уровнем моря 625 м.

В архиве по умолчанию представлена погода в Пендра-роуде за последнюю неделю. Архивные данные за месяц целиком и за предыдущие месяцы, начиная с января 2011 года, Вы можете получить, выбрав интересующий диапазон дат из раскрывающегося списка и нажав кнопку "Ввод!".


*Определитесь, кто Вы:
робот инопланетянин человек

Внимание! Время в таблицах - всемирное. Для получения местного времени необходимо прибавить поправку, которая равна 5.5 ч.

Смотрите также архив погоды в соседних городах и на ближайших метеорологических станциях:

Погода в Райпур аэропорту (Чхаттисгарх, Индия) (65 км)
Погода в Биласпуре (Чхаттисгарх, Индия) (80 км)
Погода в Умарии (Мадхья-Прадеш, Индия) (134 км)
Погода в Амбикапуре (Чхаттисгарх, Индия) (145 км)
Погода в Малейнджкханде (Мадхья-Прадеш, Индия) (150 км)
Погода в Мандле (Мадхья-Прадеш, Индия) (158 км)
Погода в Райпуре (Чхаттисгарх, Индия) (173 км)
Погода в Сидхи (Мадхья-Прадеш, Индия) (184 км)
Погода в Дурге (Чхаттисгарх, Индия) (188 км)
Погода в Реве (Мадхья-Прадеш, Индия) (205 км)

Пояснения к столбцам:

Ветер - указаны скорость ветра в м/с - средняя за 10 мин, порывы в срок и между сроками (в фигурных скобках) и направление, откуда дует ветер: С - северный, СВ - северо-восточный, В - восточный, ЮВ - юго-восточный, Ю - южный, ЮЗ - юго-западный, З - западный, СЗ - северо-западный.
Видимость - горизонтальная дальность видимости в метрах или километрах. При видимости от 1 до 10 км при отсутствии осадков обычно наблюдается дымка, при ухудшении видимости до 1 км и менее - туман. В сухую погоду видимость может ухудшаться дымом, пылью или мглою.
Явления - указаны атмосферные явления, наблюдавшиеся в срок или в последний час перед сроком; фигурными скобками обозначены явления, наблюдавшиеся между сроками (за 1-3 часа до срока); квадратными скобками обозначены град или гололедные отложения с указанием их диаметра в мм.
Облачность - указаны через наклонную черту общая и нижняя облачность в баллах и высота нижней границы облаков в метрах; квадратными скобками обозначены формы облаков: Ci - перистые, Cs - перисто-слоистые, Cc - перисто-кучевые, Ac - высококучевые, As - высокослоистые, Sc - слоисто-кучевые, Ns - слоисто-дождевые, Cu - кучевые, Cb - кучево-дождевые. Подробнее классификацию облаков см. в Атласе облаков (PDF).
T - Температура воздуха - температура, измеренная на высоте 2 м над землей.
Td - Температура точки росы - температура, при понижении до которой содержащийся в воздухе водяной пар достигнет насыщения.
f - Относительная влажность воздуха - влажноcть воздуха, измеренная на высоте 2 м над землей.
Te - Эффективная температура - температура, которую ощущает одетый по сезону человек в тени. Характеристика душности погоды. При расчете учитывается влияние влажности воздуха и скорости ветра на теплоощущения человека.
Tes - Эффективная температура на солнце - температура, которую ощущает человек, с поправкой на солнечный нагрев. Характеристика знойности погоды. Зависит от высоты солнца над горизонтом, облачности и скорости ветра. Ночью, в пасмурную погоду, а также при ветре 12 м/с и более поправка равна нулю.
P - Атмосферное давление - приведенное к уровню моря атмосферное давление.
Po - Атмосферное давление - измеренное на уровне метеостанции атмосферное давление.
Tmin - Минимальная температура - минимум температуры воздуха на высоте 2 м над землей.
Tmax - Максимальная температура - максимум температуры воздуха на высоте 2 м над землей.
R - Количество осадков - Количество выпавших осадков за период времени, мм. При наведении курсора мыши на число - период времени, за который выпало указанное количество осадков.
R24 - Количество осадков - Количество выпавших осадков за 24 часа, мм.
S - Снежный покров - Высота снежного покрова, см. При наведении курсора мыши на число - состояние снежного покрова и степень покрытия местности в баллах.